FW8170 Weather Reports


time (UTC)temp
C
wind
direction
speed
KPH
gust
KPH
rain 1hr
cm
rain 24hr
cm
rain mn
cm
humidity
%
barometer
mb
20260504180334 18 274 1.6 3.2 0.00 0.00 0.00 78 1008.2
20260504175832 18 274 0.0 0.0 0.00 0.00 0.00 72 1007.8
20260504175328 18 262 0.0 1.6 0.00 0.00 0.00 75 1007.7
20260504174827 17 268 0.0 0.0 0.00 0.00 0.00 82 1008.0
20260504174324 17 266 0.0 0.0 0.00 0.00 0.00 85 1008.1
20260504173820 17 267 0.0 0.0 0.00 0.00 0.00 85 1007.8
20260504173317 17 259 0.0 0.0 0.00 0.00 0.00 84 1008.3
20260504172814 17 261 0.0 0.0 0.00 0.00 0.00 83 1008.2
20260504172311 17 278 0.0 0.0 0.00 0.00 0.00 81 1008.5
20260504171806 17 274 0.0 0.0 0.00 0.00 0.00 82 1008.3
20260504171304 18 273 0.0 1.6 0.00 0.00 0.00 78 1008.1
20260504170801 17 259 0.0 1.6 0.00 0.00 0.00 75 1008.2
20260504170258 18 262 1.6 1.6 0.00 0.00 0.00 78 1008.1
20260504160216 18 269 0.0 1.6 0.00 0.00 0.00 68 1009.8
20260504151144 20 291 0.0 1.6 0.00 0.00 0.00 67 1010.4
20260504150642 20 272 0.0 0.0 0.00 0.00 0.00 65 1010.1
20260504150138 20 277 0.0 0.0 0.00 0.00 0.00 66 1010.3
20260504141107 21 248 1.6 1.6 0.00 0.00 0.00 63 1009.7
20260504140604 21 274 0.0 1.6 0.00 0.00 0.00 63 1010.0
20260504130528 18 266 1.6 3.2 0.00 0.00 0.00 71 1010.6
20260504110415 14 281 0.0 0.0 0.00 0.00 0.00 81 1011.0
20260504100332 15 284 0.0 3.2 0.00 0.00 0.00 78 1010.7
20260504081726 15 262 0.0 1.6 0.00 0.00 0.00 75 1010.7
20260504081222 15 254 1.6 3.2 0.00 0.00 0.00 74 1010.6
20260504080718 15 282 0.0 0.0 0.00 0.00 0.00 75 1010.7
20260504080215 15 249 1.6 3.2 0.00 0.00 0.00 75 1010.5
20260504070143 17 261 0.0 1.6 0.00 0.00 0.00 67 1010.9
20260504050531 18 269 0.0 1.6 0.00 0.00 0.00 60 1010.4
20260504045525 18 236 0.0 3.2 0.00 0.00 0.00 60 1010.4
20260504045020 18 270 0.0 1.6 0.00 0.00 0.00 59 1010.6
20260504044518 18 261 0.0 1.6 0.00 0.00 0.00 59 1010.6
20260504044015 18 246 0.0 1.6 0.00 0.00 0.00 59 1010.8
20260504043512 18 244 0.0 3.2 0.00 0.00 0.00 59 1011.2
20260504043009 19 277 0.0 1.6 0.00 0.00 0.00 59 1011.4
20260504042506 19 267 0.0 0.0 0.00 0.00 0.00 58 1011.4
20260504042003 19 258 0.0 1.6 0.00 0.00 0.00 57 1011.3
20260504041459 20 250 0.0 1.6 0.00 0.00 0.00 57 1011.5
20260504040955 20 275 0.0 1.6 0.00 0.00 0.00 57 1011.4
20260504040453 20 273 1.6 1.6 0.00 0.00 0.00 56 1011.5
20260504035948 20 259 0.0 1.6 0.00 0.00 0.00 57 1011.5
20260504035446 20 273 0.0 1.6 0.00 0.00 0.00 57 1011.7
20260504034943 20 263 0.0 1.6 0.00 0.00 0.00 56 1012.1
20260504034440 20 275 0.0 1.6 0.00 0.00 0.00 55 1011.9
20260504033937 20 242 0.0 3.2 0.00 0.00 0.00 55 1012.1
20260504033435 20 224 0.0 1.6 0.00 0.00 0.00 56 1012.1
20260504032932 20 261 0.0 1.6 0.00 0.00 0.00 56 1012.1
20260504032429 20 255 0.0 1.6 0.00 0.00 0.00 56 1011.8
20260504031925 20 265 0.0 1.6 0.00 0.00 0.00 56 1012.1
20260504031422 20 270 0.0 1.6 0.00 0.00 0.00 55 1012.1
20260504030919 20 275 0.0 0.0 0.00 0.00 0.00 56 1012.0
20260504030416 20 280 0.0 0.0 0.00 0.00 0.00 56 1012.1
20260504025912 20 271 0.0 0.0 0.00 0.00 0.00 55 1011.8
20260504025409 20 272 0.0 0.0 0.00 0.00 0.00 55 1011.9
20260504024906 20 273 0.0 0.0 0.00 0.00 0.00 55 1011.8
20260504024403 20 291 0.0 1.6 0.00 0.00 0.00 55 1011.9
20260504023900 20 269 0.0 0.0 0.00 0.00 0.00 55 1011.8
20260504023356 20 274 0.0 0.0 0.00 0.00 0.00 55 1011.8
20260504022852 20 270 0.0 0.0 0.00 0.00 0.00 55 1011.8
20260504022349 20 271 0.0 0.0 0.00 0.00 0.00 54 1011.8
20260504021845 20 274 0.0 0.0 0.00 0.00 0.00 54 1011.7
20260504021343 20 274 0.0 0.0 0.00 0.00 0.00 54 1011.6
20260504020840 20 275 0.0 0.0 0.00 0.00 0.00 54 1011.6
20260504020336 20 274 0.0 1.6 0.00 0.00 0.00 54 1011.6
20260504015832 20 272 0.0 0.0 0.00 0.00 0.00 53 1011.8
20260504015329 20 272 0.0 0.0 0.00 0.00 0.00 52 1011.4
20260504014825 20 272 0.0 0.0 0.00 0.00 0.00 52 1011.4
20260504014321 20 272 0.0 0.0 0.00 0.00 0.00 52 1011.4
20260504013819 21 272 0.0 0.0 0.00 0.00 0.00 52 1011.4
20260504013316 21 272 0.0 0.0 0.00 0.00 0.00 51 1011.3
20260504012813 21 267 0.0 1.6 0.00 0.00 0.00 51 1011.3
20260504012311 21 266 0.0 0.0 0.00 0.00 0.00 50 1011.2
20260504011808 21 266 0.0 0.0 0.00 0.00 0.00 49 1011.2
20260504011304 21 266 0.0 0.0 0.00 0.00 0.00 49 1011.2
20260504010800 22 266 0.0 0.0 0.00 0.00 0.00 48 1011.3
20260504010256 22 266 0.0 0.0 0.00 0.00 0.00 48 1011.2
20260504005753 22 266 0.0 0.0 0.00 0.00 0.00 47 1011.3
20260504005250 22 266 0.0 0.0 0.00 0.00 0.00 47 1011.4
20260504004747 22 268 0.0 1.6 0.00 0.00 0.00 47 1011.1
20260504004244 22 269 0.0 1.6 0.00 0.00 0.00 46 1011.2
20260504003741 22 268 0.0 1.6 0.00 0.00 0.00 46 1011.2
20260504003238 22 267 0.0 0.0 0.00 0.00 0.00 45 1011.3
20260504002734 23 269 0.0 1.6 0.00 0.00 0.00 45 1011.3
20260504002231 23 262 0.0 1.6 0.00 0.00 0.00 45 1011.3
20260504001730 23 262 0.0 1.6 0.00 0.00 0.00 45 1011.2
20260504001226 23 255 0.0 1.6 0.00 0.00 0.00 44 1011.3
20260504000723 23 259 0.0 1.6 0.00 0.00 0.00 44 1011.1
20260504000220 23 257 1.6 3.2 0.00 0.00 0.00 44 1011.3
20260503235718 23 246 0.0 1.6 0.00 0.00 0.00 43 1011.3
20260503235215 23 267 0.0 1.6 0.00 0.00 0.00 43 1011.3
20260503234713 23 269 0.0 1.6 0.00 0.00 0.00 42 1011.3
20260503234211 24 263 0.0 3.2 0.00 0.00 0.00 41 1011.3
20260503233707 24 255 1.6 8.0 0.00 0.00 0.00 41 1011.6
20260503233203 24 262 1.6 4.8 0.00 0.00 0.00 41 1011.7
20260503232700 24 250 0.0 1.6 0.00 0.00 0.00 40 1011.5
20260503232157 24 277 0.0 1.6 0.00 0.00 0.00 41 1011.5
20260503231655 24 234 0.0 3.2 0.00 0.00 0.00 40 1011.5
20260503231151 24 253 1.6 1.6 0.00 0.00 0.00 39 1011.5
20260503230648 24 247 1.6 3.2 0.00 0.00 0.00 39 1011.7
20260503230145 25 227 0.0 3.2 0.00 0.00 0.00 38 1011.6
20260503225643 25 262 0.0 3.2 0.00 0.00 0.00 39 1011.4
20260503225142 25 234 3.2 3.2 0.00 0.00 0.00 38 1011.7
20260503224640 25 257 1.6 3.2 0.00 0.00 0.00 38 1011.8
20260503224138 25 261 0.0 1.6 0.00 0.00 0.00 38 1011.6
20260503223636 25 183 1.6 3.2 0.00 0.00 0.00 37 1011.6
20260503223132 25 82 1.6 3.2 0.00 0.00 0.00 36 1011.8
20260503222629 25 285 1.6 8.0 0.00 0.00 0.00 36 1011.8
20260503222127 25 235 3.2 4.8 0.00 0.00 0.00 37 1011.6
20260503221625 25 266 1.6 3.2 0.00 0.00 0.00 36 1011.8
20260503221122 25 223 0.0 1.6 0.00 0.00 0.00 36 1012.0
20260503220619 25 308 3.2 3.2 0.00 0.00 0.00 37 1011.9
20260503220115 25 270 1.6 3.2 0.00 0.00 0.00 36 1011.9
20260503215612 25 265 0.0 1.6 0.00 0.00 0.00 36 1012.1
20260503215109 25 229 0.0 4.8 0.00 0.00 0.00 36 1012.0
20260503214608 25 280 1.6 3.2 0.00 0.00 0.00 35 1012.1
20260503214103 25 217 3.2 3.2 0.00 0.00 0.00 36 1012.1
20260503213603 25 219 0.0 4.8 0.00 0.00 0.00 36 1011.8
20260503213058 25 262 1.6 4.8 0.00 0.00 0.00 37 1012.0
20260503212556 25 230 1.6 4.8 0.00 0.00 0.00 36 1012.0
20260503212053 25 263 1.6 4.8 0.00 0.00 0.00 37 1012.2
20260503211550 25 249 1.6 8.0 0.00 0.00 0.00 36 1012.0
20260503211045 25 252 1.6 3.2 0.00 0.00 0.00 37 1012.3
20260503210543 24 266 3.2 4.8 0.00 0.00 0.00 36 1012.3
20260503210038 25 283 3.2 4.8 0.00 0.00 0.00 39 1012.4
20260503205535 24 274 0.0 4.8 0.00 0.00 0.00 37 1012.4
20260503205032 24 190 4.8 8.0 0.00 0.00 0.00 36 1012.6
20260503204529 23 273 3.2 8.0 0.00 0.00 0.00 37 1012.7
20260503204025 23 292 1.6 4.8 0.00 0.00 0.00 37 1012.8
20260503203523 24 263 0.0 1.6 0.00 0.00 0.00 38 1012.8
20260503203020 24 273 1.6 3.2 0.00 0.00 0.00 37 1012.9
20260503202518 24 278 1.6 4.8 0.00 0.00 0.00 37 1013.0
20260503202015 23 257 1.6 1.6 0.00 0.00 0.00 39 1013.3
20260503201514 23 281 0.0 1.6 0.00 0.00 0.00 40 1013.3
20260503201010 23 204 1.6 3.2 0.00 0.00 0.00 42 1013.5
20260503200506 23 280 1.6 4.8 0.00 0.00 0.00 39 1013.6
20260503200003 23 84 3.2 8.0 0.00 0.00 0.00 39 1013.7
20260503195500 23 173 3.2 4.8 0.00 0.00 0.00 39 1013.8
20260503194957 23 234 3.2 4.8 0.00 0.00 0.00 40 1014.0
20260503194455 22 330 3.2 4.8 0.00 0.00 0.00 40 1014.1
20260503193949 22 262 1.6 8.0 0.00 0.00 0.00 40 1014.4
20260503193445 22 236 1.6 8.0 0.00 0.00 0.00 41 1014.3
20260503192941 23 185 4.8 4.8 0.00 0.00 0.00 40 1014.5
20260503192437 23 298 1.6 3.2 0.00 0.00 0.00 40 1014.6
20260503191933 22 278 1.6 4.8 0.00 0.00 0.00 40 1014.8
20260503191431 22 235 1.6 3.2 0.00 0.00 0.00 40 1014.9
20260503190927 22 240 1.6 4.8 0.00 0.00 0.00 40 1015.1
20260503190425 22 273 1.6 3.2 0.00 0.00 0.00 42 1015.2
20260503185921 22 244 1.6 3.2 0.00 0.00 0.00 39 1015.2
20260503185418 22 279 0.0 3.2 0.00 0.00 0.00 40 1015.2
20260503184917 22 255 1.6 3.2 0.00 0.00 0.00 42 1015.6
20260503184414 22 290 4.8 9.7 0.00 0.00 0.00 39 1015.8
20260503183910 22 284 0.0 3.2 0.00 0.00 0.00 43 1015.8
20260503183407 22 285 3.2 4.8 0.00 0.00 0.00 40 1015.9
20260503182904 22 282 1.6 3.2 0.00 0.00 0.00 40 1016.1
20260503182403 21 262 0.0 3.2 0.00 0.00 0.00 41 1016.3
20260503181859 21 280 0.0 11.3 0.00 0.00 0.00 42 1016.2
20260503181356 21 316 0.0 9.7 0.00 0.00 0.00 43 1016.4
20260503180853 21 257 1.6 3.2 0.00 0.00 0.00 40 1016.7